Orbital Elements at Epoch 2459000.5 (2020-May-31.0) TDB
Reference: JPL 19 (heliocentric ecliptic J2000)
Element | Value | Uncertainty (1-sigma) | Units |
e | .1196479438264998 | 5.2223e-08 | |
a | 2.98372761151122 | 2.371e-08 | au |
q | 2.626730737855549 | 1.6287e-07 | au |
i | 10.89170996494548 | 5.8788e-06 | deg |
node | 329.9884318524263 | 2.1946e-05 | deg |
peri | 345.5583972323445 | 2.9302e-05 | deg |
M | 253.6543444154725 | 2.2178e-05 | deg |
tp | 2459556.601976824363 (2021-Dec-08.10197682) | 0.00011972 | TDB |
period | 1882.509544526215 5.15 | 2.2439e-05 6.143e-08 | d yr |
n | .1912340901785993 | 2.2795e-09 | deg/d |
Q | 3.340724485166891 | 2.6547e-08 | au |
|
| | Orbit Determination Parameters
Additional Information
|